Location: Laas
(43.4693°N, 0.3073°E)
Time: 15:10:30
(UTC+00:00)

MOS 1 Rocket - Pass Details

Date: 25 October 2020
Orbit: 615 x 829 km, 97.4° (Epoch: 24 November)

Event Time Altitude Azimuth Distance (km) Brightness Sun altitude
Rises 18:03:50 0° 24° (NNE) 3,018 6.3 -12.3°
Reaches altitude 10° 18:06:19 10° 36° (NE) 2,132 5.4 -12.8°
Maximum altitude 18:10:19 28° 95° (E) 1,328 4.2 -13.5°
Drops below altitude 10° 18:14:29 10° 154° (SSE) 2,235 5.7 -14.2°
Sets 18:17:08 0° 165° (SSE) 3,191 6.6 -14.7°
